GFSSW_925_spd_021.txt.gz
Wind_Speed
17 17 18 17 17 17 18 19 20 21 20 20 21 22 22 24 28 19 10 19 11 20 12 9 7 14 17 8 12 7 3 5 11 11 16 17 12 10 3 4 4 4 4 8 21
18 18 18 19 20 21 20 20 20 19 20 21 22 22 23 25 28 16 33 32 27 20 16 19 11 13 11 12 7 13 6 10 12 15 17 14 10 18 15 7 12 13 19 32 30
17 18 19 19 19 20 20 21 20 20 20 20 21 22 22 23 8 7 4 11 30 24 25 18 19 15 16 13 15 18 22 16 16 19 21 20 20 14 16 8 6 5 10 14 13
20 20 21 21 21 21 21 20 20 19 19 20 20 21 23 10 6 4 11 15 7 29 24 20 7 10 8 19 16 18 20 20 15 20 23 23 20 19 17 11 8 10 7 4 8
21 22 24 26 26 25 24 24 23 23 22 19 19 17 12 6 10 23 26 12 3 17 21 11 11 6 12 8 16 24 21 18 19 20 23 26 26 22 22 17 11 10 13 11 9
21 22 24 25 26 27 28 29 29 27 25 22 18 14 8 16 15 27 24 19 17 18 20 17 7 10 10 11 19 15 17 21 17 22 22 24 26 21 19 11 15 16 18 12 10
22 24 25 26 26 27 28 30 32 32 29 21 15 12 13 21 22 23 26 28 24 18 11 21 26 12 6 11 18 18 20 19 23 22 26 21 28 29 19 16 22 16 15 11 11
22 23 26 26 27 29 32 35 35 31 28 18 12 10 8 26 23 30 26 25 22 22 23 24 22 7 5 8 16 18 15 21 22 22 23 12 40 20 15 20 15 21 23 17 11
25 26 29 30 30 31 34 37 35 27 19 13 6 8 9 18 15 24 25 17 18 22 23 21 17 7 8 6 8 17 21 22 24 22 18 14 33 17 16 19 22 25 24 20 18
27 30 32 34 33 32 33 32 22 13 8 7 11 7 8 8 8 10 13 18 8 9 9 6 5 10 10 11 18 12 21 24 29 11 18 23 31 29 29 24 24 22 19 18 13
30 33 37 35 33 27 27 18 9 4 4 11 19 15 32 22 33 6 10 14 8 6 7 8 8 21 36 24 15 15 18 21 20 18 15 23 25 25 21 12 14 14 14 15 14
33 35 37 32 28 18 11 4 14 14 16 23 23 28 33 35 25 21 29 16 6 8 8 10 22 26 17 16 18 19 23 24 15 12 13 20 18 22 23 14 17 22 11 11 8
32 34 32 27 22 12 14 20 26 24 9 26 18 22 26 22 23 23 20 16 15 13 13 16 17 17 21 19 19 25 26 20 19 10 17 15 15 19 17 15 8 10 9 9 12
31 32 26 27 5 22 12 26 25 22 4 10 24 10 10 17 22 26 28 19 16 18 15 16 19 22 19 22 21 24 15 21 18 11 16 10 16 21 13 17 19 18 14 19 14
32 30 23 17 13 9 22 26 19 6 4 17 12 8 12 10 10 10 18 14 17 16 11 23 14 9 19 22 20 24 15 18 13 16 17 19 9 18 9 8 9 10 11 11 13
33 27 22 9 10 13 21 19 9 3 4 9 5 11 11 9 8 12 7 10 12 15 14 17 15 17 17 17 19 17 16 18 16 12 11 19 15 25 14 11 9 9 10 12 11
36 24 16 15 5 18 18 9 2 2 14 12 19 18 15 15 18 17 17 13 6 6 11 12 14 18 19 18 17 16 12 6 10 10 17 14 12 18 7 13 22 15 13 6 8
39 18 13 14 14 12 17 4 2 6 14 16 19 11 10 14 14 17 17 10 13 11 10 9 9 9 10 17 11 13 15 9 13 12 17 13 8 11 19 12 10 10 8 8 11
34 13 7 2 2 10 4 3 1 9 12 17 19 9 11 12 1 7 12 10 8 5 2 5 8 12 17 16 13 19 16 20 17 10 8 5 13 21 26 20 11 14 10 11 14
26 9 10 2 6 5 3 4 9 13 17 11 11 10 16 12 9 13 6 7 11 4 2 1 7 8 16 14 14 18 11 7 11 13 13 7 13 12 12 19 16 8 15 13 14
5 3 8 2 3 3 0 4 19 12 20 5 4 18 11 11 4 8 8 11 9 10 10 7 4 9 10 3 8 7 16 11 9 7 11 6 10 11 19 15 11 12 17 17 16
8 3 6 1 1 2 2 16 16 19 19 14 12 12 12 16 13 9 10 9 9 7 6 3 3 6 13 18 17 18 21 16 9 19 9 4 9 8 6 7 10 14 17 16 18
6 4 7 2 2 2 7 14 16 19 12 11 14 14 11 9 7 5 4 10 11 6 1 4 3 5 8 6 8 7 12 15 7 5 20 10 13 4 11 7 10 19 18 17 17
4 4 3 4 5 9 11 11 15 14 14 14 13 14 7 4 8 8 7 8 8 11 6 5 3 6 8 10 8 11 20 16 11 9 8 13 19 10 13 8 17 18 18 19 17
3 3 4 5 9 14 10 11 18 18 10 13 5 12 16 11 16 13 14 14 2 6 4 3 4 10 15 18 12 16 19 19 16 15 11 16 8 12 6 9 15 17 19 18 17
3 3 3 8 11 15 8 7 14 12 15 8 15 14 11 15 13 16 13 10 10 9 4 4 3 10 13 14 11 17 20 19 20 22 17 20 19 6 1 9 11 16 18 17 18
9 8 5 4 7 10 10 18 18 14 8 17 16 9 12 15 15 21 15 13 12 11 9 8 5 3 5 9 8 8 16 18 14 18 21 18 17 8 8 11 9 9 15 17 18

GFSSW_925_spd_024.txt.gz
Wind_Speed
14 15 15 15 16 18 19 20 20 20 20 21 21 21 21 23 26 20 11 21 14 18 16 4 6 10 11 4 5 7 0 5 6 6 7 9 7 26 2 9 2 3 6 11 11
15 15 16 16 16 17 19 20 20 20 21 22 23 24 26 27 27 15 31 31 26 20 12 13 6 7 4 6 4 5 7 9 9 5 5 5 6 15 19 10 7 7 4 13 6
17 17 18 18 19 19 18 17 18 19 21 22 23 24 25 25 7 8 8 11 9 27 25 11 11 4 6 6 7 6 14 13 14 11 10 11 12 6 17 16 8 4 8 7 8
19 20 21 22 22 22 22 21 19 18 19 21 21 22 24 9 7 1 4 18 19 15 22 13 6 6 6 11 10 14 15 16 16 17 14 16 14 16 15 18 12 10 8 6 7
21 22 23 24 25 25 25 25 26 25 22 19 19 17 11 3 10 26 29 33 23 6 25 10 10 7 7 6 6 20 20 15 13 16 20 19 21 20 23 18 16 11 8 8 8
22 24 25 27 27 28 28 29 29 29 27 22 16 11 8 12 18 22 23 19 19 11 17 13 6 7 4 5 9 4 6 13 17 19 19 19 22 20 22 19 21 14 12 11 10
24 25 27 28 30 29 29 31 32 30 25 19 15 10 11 19 18 28 27 29 29 19 5 16 19 5 6 4 10 11 10 14 20 12 17 16 26 28 21 21 19 15 12 11 11
24 26 28 29 29 29 30 31 30 28 23 14 7 5 8 30 31 33 27 25 20 17 18 19 10 5 4 5 6 3 4 17 21 18 10 8 35 20 11 15 20 17 18 18 14
25 29 30 31 31 30 28 26 26 22 12 3 4 5 10 13 9 17 19 16 10 14 10 11 6 7 3 3 1 7 17 20 26 6 4 11 39 15 14 17 13 11 14 15 19
28 30 32 30 28 28 22 23 18 12 11 1 2 3 7 8 8 29 17 10 10 4 4 2 3 6 4 6 18 9 19 19 16 6 13 18 36 21 18 19 22 22 23 20 20
30 32 34 29 25 23 20 16 8 3 12 2 18 18 24 53 44 32 20 13 7 3 6 4 4 18 27 16 8 10 11 10 5 10 11 22 24 21 17 16 12 13 17 19 19
30 31 33 25 24 14 10 4 10 10 10 14 16 19 35 39 26 31 32 7 2 7 5 4 19 12 9 6 10 14 16 19 6 9 15 18 28 24 23 22 19 21 20 17 15
31 31 30 25 17 11 13 14 24 17 3 9 17 15 14 6 21 26 15 12 11 9 6 11 6 8 15 12 16 16 19 12 8 12 22 9 19 8 15 11 10 10 15 10 12
32 32 29 27 4 18 11 21 21 13 2 5 8 6 12 1 3 26 27 13 9 11 9 10 11 14 14 16 18 19 12 13 16 13 13 8 19 22 14 22 16 12 11 12 14
32 34 28 16 12 8 16 23 20 2 4 13 10 7 10 12 17 9 16 17 23 20 7 11 9 4 14 17 15 19 10 16 13 8 15 16 6 25 10 16 17 15 14 11 11
35 30 25 5 11 13 21 24 2 5 3 9 7 16 13 13 14 5 6 15 11 19 17 14 11 14 12 12 11 6 9 15 12 2 8 14 11 9 14 15 8 9 9 11 11
37 27 15 14 5 16 22 7 5 4 10 10 14 18 8 8 12 10 6 2 1 5 6 7 13 11 12 12 10 4 1 3 2 5 16 12 10 21 9 8 15 16 15 14 8
33 22 12 14 17 16 13 5 7 4 5 12 14 22 6 7 6 13 10 7 5 6 7 5 5 6 2 1 7 7 9 5 7 4 4 12 9 7 16 20 26 21 18 4 5
30 14 8 5 6 7 5 5 4 0 10 7 16 9 8 10 3 8 6 3 6 9 5 5 3 6 9 6 4 4 10 5 6 15 1 5 8 9 19 24 21 19 8 8 8
19 9 6 4 2 5 4 2 2 6 9 12 3 4 9 10 7 6 5 2 7 5 5 4 4 4 6 6 4 7 5 5 3 7 6 5 6 8 7 11 12 12 10 8 8
6 4 2 5 1 4 2 5 8 13 10 6 2 4 14 9 7 8 3 4 4 4 5 3 2 4 4 4 6 3 1 3 3 4 8 3 6 11 11 13 18 8 14 16 14
9 2 2 3 3 1 1 8 10 12 12 4 5 4 5 7 4 4 1 3 8 5 5 2 1 3 8 11 12 4 6 5 3 6 5 2 12 17 8 12 12 14 16 13 13
5 3 6 4 3 4 5 9 9 13 17 7 4 4 2 3 5 6 3 5 5 1 2 3 2 4 9 2 0 4 3 2 4 5 16 8 8 12 3 12 5 18 15 15 14
3 4 4 4 2 1 6 5 9 10 13 13 11 3 7 5 4 6 10 5 5 5 7 2 3 5 5 5 7 6 9 6 1 3 11 16 15 25 16 13 3 13 16 17 16
1 2 1 4 6 8 6 8 16 10 3 9 4 9 1 5 4 3 7 10 1 9 3 3 5 6 12 16 17 14 15 10 9 8 4 6 14 17 14 11 14 16 17 18 17
3 3 3 6 6 5 5 3 12 15 11 8 8 17 9 5 9 13 6 4 8 8 8 8 4 4 16 18 18 18 14 14 13 12 11 18 21 18 13 1 12 18 20 18 18
5 4 2 5 4 5 3 14 14 16 8 12 12 14 9 11 10 15 18 17 11 9 8 8 4 2 7 14 8 6 13 11 5 8 4 7 6 14 6 8 5 13 18 19 18

GFSSW_925_spd_027.txt.gz
Wind_Speed
16 16 17 19 20 20 20 20 20 21 21 20 20 20 22 26 30 25 12 19 10 11 20 9 3 6 7 3 4 4 3 5 6 6 4 6 8 5 3 4 5 7 2 8 13
17 18 19 20 21 22 22 22 21 21 22 23 22 22 22 25 25 17 31 27 25 21 14 14 7 7 3 5 4 5 5 10 8 8 2 6 5 12 13 13 12 6 6 5 9
17 18 19 21 21 21 21 22 22 23 23 22 22 22 22 22 6 7 12 16 12 16 22 9 14 6 6 5 6 7 10 14 10 9 5 5 6 5 12 16 11 7 5 9 4
20 20 21 22 23 23 23 22 21 21 22 23 22 20 19 8 7 2 9 19 28 21 14 12 4 6 7 11 7 6 9 16 8 6 5 12 6 13 15 20 12 10 13 8 13
21 21 22 24 24 25 25 24 24 23 21 20 17 13 8 4 12 29 26 24 19 12 9 13 13 6 9 5 5 12 10 7 8 10 12 13 20 21 19 14 16 14 14 13 11
23 24 26 27 30 29 26 25 25 25 23 19 13 8 4 6 14 17 19 22 15 12 7 14 7 6 4 5 15 1 11 13 12 16 11 13 19 17 21 16 14 16 12 13 12
25 26 27 29 30 25 24 23 26 27 21 16 10 5 6 21 18 27 28 30 30 21 5 10 24 6 5 2 7 4 8 10 13 4 7 3 21 25 19 18 20 18 12 12 12
26 27 28 31 29 26 26 25 26 19 12 7 4 4 7 22 18 25 17 23 19 17 20 20 15 5 5 4 5 3 4 13 16 13 6 7 30 8 4 13 20 18 16 15 14
26 28 29 31 29 26 22 23 21 9 11 3 6 4 10 17 10 18 3 16 15 10 14 12 6 6 2 4 3 5 9 13 10 6 8 14 37 13 13 14 18 18 14 13 15
26 28 29 30 27 26 20 20 24 11 8 1 2 1 8 12 22 26 34 21 6 7 4 7 4 4 3 6 15 10 15 3 3 4 10 14 31 17 8 10 15 13 14 14 14
26 29 29 27 22 20 17 14 8 5 9 6 13 7 17 19 26 17 11 11 11 4 5 4 5 15 19 16 10 5 6 2 4 7 13 18 27 21 13 15 20 21 21 21 21
29 28 29 25 22 11 13 3 5 9 8 12 13 13 24 11 6 14 3 4 3 8 5 2 17 8 3 5 11 11 10 8 6 11 5 10 21 16 12 15 17 17 15 15 12
28 27 26 24 12 6 14 8 18 16 3 7 7 6 9 2 4 11 5 3 2 8 8 6 6 9 9 4 6 5 9 9 6 9 16 9 20 12 10 13 18 20 18 13 12
30 29 23 23 3 14 11 16 23 8 2 6 5 4 14 4 4 3 2 3 4 7 7 7 9 8 6 12 13 15 4 7 5 5 9 6 15 20 20 20 13 15 14 10 13
32 28 20 12 10 6 15 22 25 3 3 12 5 9 18 10 10 5 5 2 9 15 4 7 3 4 13 11 6 6 11 9 10 8 4 4 4 28 8 14 20 20 15 18 16
32 26 21 3 7 13 17 28 1 4 4 8 9 14 16 17 8 11 5 7 4 6 12 10 9 6 7 10 8 4 7 9 6 3 6 12 9 27 10 15 9 9 10 12 11
35 24 10 6 5 16 21 5 4 5 5 8 10 17 18 10 12 9 10 4 2 4 5 1 15 16 9 7 5 4 4 2 2 4 13 12 13 23 5 4 6 7 10 11 10
36 11 3 9 7 13 9 5 7 2 5 10 8 15 5 10 8 11 11 5 9 2 3 0 5 8 4 8 6 6 9 4 6 7 6 13 13 9 10 14 16 13 14 9 8
24 8 2 0 4 4 5 5 4 3 6 10 11 4 5 13 3 7 5 3 2 4 1 1 6 3 4 3 4 2 4 8 4 4 2 5 8 10 11 19 8 12 7 11 9
12 10 5 2 2 4 5 3 3 3 12 9 3 2 4 11 6 7 3 1 6 3 2 3 3 4 5 2 5 6 3 3 1 4 5 6 7 11 2 13 5 8 9 8 6
6 4 6 0 1 5 2 5 6 8 9 5 5 5 5 6 8 4 2 6 1 5 6 3 1 4 3 3 4 2 3 3 4 5 4 3 7 6 13 5 9 14 10 9 9
7 2 12 5 4 1 1 5 8 6 9 6 4 4 5 6 4 4 4 4 6 1 1 2 3 4 8 6 5 4 3 2 3 9 4 3 7 11 3 7 8 17 5 9 10
4 3 4 3 2 3 5 5 4 7 9 3 5 5 2 4 4 5 5 3 8 2 2 2 2 4 8 3 3 1 4 4 1 2 6 5 6 5 8 9 9 8 3 10 13
2 4 4 4 1 1 4 4 4 7 10 7 7 7 5 5 6 6 9 5 7 3 4 5 4 5 5 6 3 6 11 4 4 3 5 19 11 25 14 17 14 3 5 1 13
3 2 1 4 4 8 4 5 7 10 3 4 4 5 15 6 9 7 6 4 4 5 2 4 5 5 9 12 14 13 17 16 11 8 5 9 10 14 13 17 14 9 9 8 11
2 3 4 5 9 6 5 4 11 11 4 8 6 15 14 9 12 21 16 6 7 4 5 5 3 3 11 14 11 17 20 19 16 14 10 10 24 9 14 9 8 12 15 15 11
4 4 2 5 4 4 3 7 13 13 9 10 14 16 13 15 12 21 20 16 12 7 7 6 3 3 7 9 12 10 16 19 11 8 13 10 13 10 11 11 8 3 14 17 15

GFSSW_925_spd_030.txt.gz
Wind_Speed
18 18 19 20 20 21 21 20 20 19 18 18 19 20 22 25 28 27 7 13 12 16 17 16 7 10 6 4 5 4 2 5 7 8 5 2 1 3 3 1 0 2 3 4 4
18 19 20 21 22 21 21 21 21 20 20 18 18 19 21 24 25 15 15 12 11 11 12 6 6 8 4 6 5 5 5 9 6 7 4 4 2 5 4 7 3 1 3 7 5
21 20 21 22 22 23 23 22 22 23 23 21 20 19 20 19 5 7 11 11 18 14 12 12 8 5 6 4 6 7 11 11 5 7 4 7 8 3 3 5 6 5 4 5 8
21 22 23 24 24 25 24 23 22 21 21 20 18 17 16 6 4 3 7 20 18 12 3 6 6 5 7 11 6 5 13 13 7 4 4 6 6 12 12 8 9 7 8 5 10
22 23 24 25 27 27 25 23 22 22 20 18 14 10 6 4 10 12 19 19 22 16 5 5 10 4 6 5 4 14 7 10 16 9 8 6 15 11 22 13 12 14 14 13 10
24 24 25 26 28 25 22 20 23 24 19 13 7 2 3 4 7 20 26 25 23 17 6 4 6 7 5 5 16 1 9 10 6 6 5 8 15 5 5 8 12 13 16 11 11
26 26 27 28 28 25 21 21 23 23 15 8 2 4 4 13 15 22 20 12 16 15 4 11 12 4 2 3 6 4 6 3 7 6 9 8 20 28 20 13 19 21 19 15 15
24 25 27 28 27 24 21 20 19 20 12 8 5 4 7 19 17 15 9 13 18 20 15 20 14 4 7 5 4 4 5 16 14 9 6 10 29 20 9 16 21 21 16 15 15
25 26 26 27 27 25 23 23 20 20 6 8 5 3 10 15 9 18 12 7 18 11 9 14 5 7 4 5 4 4 16 9 5 8 10 13 31 7 7 8 13 11 11 12 14
25 26 25 26 24 23 20 24 22 9 7 4 2 1 7 9 16 17 15 15 3 6 4 4 5 4 4 7 13 9 5 2 5 5 15 14 32 14 10 12 17 11 14 13 10
26 26 25 23 22 17 18 10 8 5 4 6 9 5 17 13 26 7 13 3 4 4 4 4 4 14 15 16 5 4 2 1 3 4 4 17 21 16 10 11 16 18 19 20 20
25 26 26 21 18 8 11 3 5 6 8 12 13 10 21 10 6 6 1 2 2 4 2 5 10 8 5 7 10 6 1 3 5 8 4 7 12 9 8 13 14 18 17 14 13
28 26 25 18 8 2 8 1 9 8 2 8 6 4 9 4 5 7 1 1 3 4 4 6 8 3 7 5 5 4 9 3 6 8 12 8 18 12 8 12 16 17 15 15 15
28 26 22 17 1 8 5 3 16 2 3 5 5 3 9 11 3 6 4 4 2 4 3 5 7 6 6 9 7 5 3 1 2 3 8 2 9 15 15 18 14 12 14 14 12
31 27 20 10 8 3 4 12 11 4 4 11 4 3 15 2 8 3 9 2 6 7 3 11 4 3 5 6 7 9 8 8 7 6 3 3 5 13 5 11 12 16 19 18 17
35 28 17 3 5 8 11 16 3 5 4 7 6 12 14 8 8 5 7 4 3 5 7 24 3 5 7 7 9 6 6 4 1 2 7 7 6 21 9 12 7 14 13 12 11
37 18 6 5 2 11 16 3 4 4 4 5 8 12 17 5 9 5 10 7 2 5 5 10 14 11 5 3 2 5 5 2 1 2 12 12 9 24 4 6 4 9 9 10 9
27 9 1 5 6 13 5 5 5 1 5 5 9 16 4 6 5 7 7 5 2 7 4 3 2 6 5 11 7 7 7 5 6 6 5 6 12 8 11 13 10 6 9 10 11
20 6 3 6 5 6 5 4 5 4 3 6 13 3 4 4 3 6 4 3 4 6 5 2 4 4 2 2 9 4 4 7 3 3 1 5 7 8 16 10 8 8 9 11 11
11 8 6 7 3 5 5 2 3 4 5 5 3 3 4 6 6 6 4 2 4 3 3 3 4 7 6 4 5 4 4 3 1 4 5 6 6 6 6 2 4 8 11 13 7
6 3 8 5 3 5 3 4 5 5 6 3 4 4 7 7 4 4 5 7 1 5 6 4 0 5 2 3 4 1 1 2 2 5 4 2 5 6 15 4 8 10 11 13 6
6 2 9 5 4 1 1 5 6 6 1 5 5 8 7 4 5 4 6 3 4 3 5 1 1 4 5 5 5 2 3 1 4 8 4 3 6 6 6 7 8 13 11 6 4
3 3 6 5 2 3 5 5 4 4 5 3 4 3 3 3 5 4 6 4 7 2 4 1 1 3 5 3 5 2 3 3 1 0 5 4 7 5 9 14 13 11 8 3 5
2 4 4 4 1 2 4 7 5 5 6 3 5 5 3 4 7 6 8 6 3 2 8 1 2 5 5 2 2 4 8 8 3 3 5 10 9 22 19 12 16 14 7 3 6
3 1 1 4 3 5 4 5 8 6 3 3 3 4 9 7 12 14 13 7 7 5 1 4 4 3 8 11 8 7 13 13 15 13 8 3 2 16 14 15 17 11 6 5 9
2 3 3 3 5 4 4 3 8 8 5 10 7 15 13 13 13 21 18 8 9 5 7 6 4 2 11 10 11 14 17 16 15 19 16 14 15 16 17 11 12 10 10 8 10
3 1 2 4 4 2 3 4 8 14 7 9 15 16 15 18 12 19 19 21 13 5 6 5 2 1 4 5 4 11 16 21 18 14 13 14 11 15 13 12 7 8 9 10 11

GFSSW_925_spd_033.txt.gz
Wind_Speed
17 17 17 18 19 19 19 19 18 18 17 17 18 20 22 23 27 19 7 5 7 15 17 12 5 3 5 6 5 4 7 12 14 12 8 1 4 2 3 6 4 3 3 5 7
17 17 18 18 18 19 20 21 19 18 17 17 17 18 20 21 20 12 7 7 9 11 7 3 5 9 5 7 7 10 10 16 10 14 8 13 9 4 3 4 4 2 8 8 7
16 18 18 19 19 19 19 18 18 18 17 17 16 17 18 17 6 0 10 15 14 14 8 3 4 5 13 7 12 11 19 20 16 16 12 15 12 4 6 11 12 5 2 7 16
18 18 19 20 21 20 19 17 17 17 17 15 15 15 15 6 4 2 5 19 19 16 3 1 6 7 10 18 15 14 19 21 16 6 9 18 15 17 16 19 11 15 12 10 11
20 20 21 22 23 21 18 16 18 19 15 11 10 9 6 3 6 5 16 16 10 12 3 3 9 11 14 11 18 23 23 16 21 14 12 10 22 20 21 19 18 20 20 18 15
21 21 22 22 22 19 16 15 18 18 12 6 3 1 1 5 8 13 17 11 11 7 4 2 4 8 9 13 18 11 21 23 17 15 19 18 26 19 22 14 16 16 19 18 16
22 23 23 22 23 20 18 16 18 14 13 8 2 4 2 6 9 17 15 9 8 3 2 4 8 8 2 12 10 16 20 15 16 23 16 9 22 34 22 22 22 25 21 22 21
23 24 23 23 21 19 17 16 18 15 6 4 6 2 5 9 15 17 13 13 9 7 2 3 4 6 8 8 8 11 15 22 25 14 10 17 30 37 21 21 26 25 22 21 21
24 24 23 23 20 19 16 16 14 8 4 4 3 1 5 14 10 15 10 8 11 6 4 4 6 7 6 13 9 13 21 26 22 23 17 19 31 28 22 16 19 19 17 15 17
24 25 23 23 18 16 17 14 7 5 4 2 2 3 4 11 17 23 11 12 7 8 4 2 5 9 12 13 20 17 20 20 21 13 21 25 33 22 13 12 18 17 17 18 20
25 26 26 23 18 10 18 4 4 1 3 4 7 5 15 13 21 6 10 4 4 5 6 1 8 16 18 19 20 16 9 21 18 10 21 25 28 24 21 23 25 23 22 22 22
26 27 26 21 15 5 8 5 5 3 8 7 12 10 16 9 6 11 2 2 2 10 5 5 15 14 12 13 17 21 20 12 9 10 7 15 21 18 17 19 20 22 22 23 23
29 26 25 20 6 3 3 7 2 5 3 7 5 4 4 10 6 9 2 3 5 9 12 15 15 7 10 16 18 17 22 21 11 10 14 14 23 23 21 20 21 23 24 23 22
31 26 23 16 1 5 1 4 7 6 3 3 2 1 7 14 5 19 3 6 3 7 8 13 13 12 15 12 18 18 10 13 19 15 13 4 12 13 12 17 17 18 19 21 21
34 27 19 7 6 2 1 7 4 5 4 7 2 4 14 4 9 5 8 2 10 13 7 19 14 10 15 13 12 17 15 11 6 9 12 20 12 19 14 22 19 17 19 22 22
37 24 11 2 4 1 8 6 4 2 4 3 4 11 17 8 13 7 10 10 9 10 14 22 20 14 16 13 9 10 16 17 15 11 14 18 11 23 18 21 20 23 20 18 18
34 12 3 6 1 7 10 2 2 3 5 4 8 12 17 5 12 12 16 12 5 6 9 13 16 11 16 16 11 9 11 9 11 13 18 6 13 23 3 9 12 9 13 16 14
26 5 3 3 8 10 3 1 3 1 4 6 8 18 4 6 10 12 11 10 1 1 7 4 4 3 12 20 18 14 15 9 16 14 19 13 12 8 9 10 11 12 14 13 13
18 4 3 8 4 6 1 0 1 2 4 8 15 5 3 2 8 8 12 8 3 1 4 5 2 6 5 6 13 13 10 19 6 4 11 12 19 17 16 16 10 11 10 15 15
12 4 4 7 5 3 1 2 2 3 8 7 5 3 6 9 9 7 7 4 6 5 2 2 6 2 7 9 4 8 5 10 9 6 8 9 18 9 7 7 3 12 17 18 18
5 0 7 7 2 3 2 3 5 6 9 4 5 8 7 10 6 8 6 11 2 10 9 6 3 3 5 6 7 9 7 6 7 11 3 3 3 2 6 11 11 14 17 17 15
6 1 10 5 1 1 1 5 7 6 1 5 6 10 11 11 8 8 7 5 9 8 10 4 3 5 10 8 7 7 4 9 8 17 10 8 5 4 12 10 15 18 18 20 11
5 3 7 5 2 3 4 5 4 5 6 4 5 4 6 6 7 8 9 7 11 9 4 3 1 6 7 4 4 1 3 2 5 6 12 12 6 9 7 19 17 21 21 18 10
3 3 3 4 1 2 6 4 6 5 10 4 7 9 5 6 9 6 15 9 8 11 11 5 6 10 9 8 8 10 10 8 5 8 13 16 23 26 20 19 22 23 18 18 9
3 2 2 4 2 8 4 5 9 6 2 7 3 7 7 6 16 18 13 14 12 9 8 4 9 11 14 15 14 17 19 17 14 14 11 13 24 23 17 19 21 19 17 17 9
2 2 2 4 7 6 3 3 7 5 5 10 12 14 15 15 18 23 21 14 8 4 9 7 7 10 12 16 17 20 20 20 19 18 18 20 29 20 22 21 19 22 19 18 12
0 1 2 3 3 3 3 4 9 15 10 11 14 15 16 18 15 20 20 22 17 10 5 4 4 5 11 8 9 13 22 24 19 17 16 20 24 22 20 18 17 17 16 19 14

GFSSW_925_spd_036.txt.gz
Wind_Speed
14 14 15 15 16 16 16 16 15 14 14 16 17 19 19 20 23 13 8 3 5 10 10 11 11 8 11 16 16 14 11 17 23 20 13 6 14 15 6 9 6 3 3 7 10
15 15 16 17 17 17 17 16 15 14 14 15 16 17 17 17 17 3 6 9 11 13 7 9 13 13 13 16 11 16 17 27 21 14 11 16 15 11 7 17 12 7 8 9 11
17 17 17 18 18 18 16 14 14 16 17 16 15 16 16 15 6 4 5 15 17 12 9 8 10 14 19 16 23 21 26 22 23 15 12 17 18 15 14 18 17 14 8 2 2
17 18 19 19 19 17 14 12 13 16 17 15 13 13 13 6 2 3 3 13 9 5 6 4 8 17 19 26 21 26 26 26 25 15 11 20 20 23 22 20 19 6 6 11 12
19 19 19 19 18 16 12 11 12 15 15 14 12 12 6 3 5 4 10 10 6 5 4 7 10 13 23 16 25 28 29 23 23 22 19 16 23 24 25 23 22 21 18 17 17
20 21 21 20 19 14 11 9 12 16 14 10 9 6 5 4 7 6 10 13 7 8 6 8 9 9 15 21 23 16 25 29 28 22 20 24 27 21 28 23 24 21 22 22 19
21 22 22 21 20 16 13 10 12 12 12 5 5 1 4 7 8 11 11 9 7 7 9 7 13 12 5 16 21 23 26 24 25 27 28 16 27 35 30 25 22 21 21 22 21
23 24 23 22 20 16 14 13 15 10 3 3 2 2 3 1 7 9 11 11 5 9 10 9 9 15 19 15 16 17 22 24 33 25 23 23 29 38 29 29 25 26 24 23 24
24 24 24 23 19 15 14 16 9 1 2 4 4 5 2 5 12 11 11 11 14 11 8 9 8 14 14 17 18 20 24 30 30 27 24 19 35 37 32 29 25 25 24 22 24
24 24 24 23 17 12 14 7 2 3 2 3 4 5 3 8 17 18 9 10 9 8 9 11 8 12 12 16 22 24 26 27 28 21 25 29 35 29 26 13 24 27 26 24 23
26 25 24 22 16 8 12 4 4 6 5 7 6 5 7 14 17 11 8 10 6 9 12 13 12 14 15 18 25 25 28 22 19 22 26 26 34 31 28 29 28 24 21 20 21
30 25 24 21 12 5 7 4 4 5 8 8 8 8 9 6 13 11 4 7 11 13 13 12 16 17 15 14 20 22 26 31 20 15 20 25 32 29 27 29 28 27 27 26 24
33 28 25 17 2 3 3 5 2 9 6 2 2 5 3 11 9 10 12 11 13 14 13 15 16 10 10 14 19 23 25 25 27 20 17 21 27 27 22 24 24 24 24 24 26
35 29 23 7 1 2 2 0 6 6 5 5 4 3 5 12 9 12 8 9 11 16 15 15 11 13 16 19 18 21 22 26 24 22 23 21 20 23 25 29 29 27 25 25 25
38 28 16 3 3 1 2 5 5 5 4 2 3 2 9 6 9 5 7 10 15 17 16 21 19 16 18 20 19 20 18 24 23 23 25 30 19 19 19 21 19 18 20 23 24
37 19 6 3 3 1 5 3 6 6 1 2 2 9 11 9 8 5 9 11 12 15 16 21 18 18 22 19 17 14 17 20 19 14 18 24 22 20 21 26 22 18 20 21 21
34 9 4 4 3 2 4 4 5 5 2 2 7 11 16 9 13 8 14 10 8 8 12 18 14 14 15 19 20 16 16 11 15 18 19 21 20 19 7 1 1 8 15 8 11
27 3 1 0 4 4 5 6 5 3 5 9 10 18 11 10 9 13 11 12 2 8 13 7 7 14 7 18 21 21 19 15 20 17 20 26 23 16 16 14 15 12 10 10 11
15 1 2 3 2 5 7 5 3 4 5 9 14 10 8 6 8 12 12 9 5 5 8 9 6 12 10 12 14 20 20 21 24 19 16 18 26 26 19 11 9 3 6 8 10
10 3 2 7 4 8 5 4 3 3 7 8 9 7 12 14 13 10 10 5 6 5 8 7 10 10 4 7 14 8 13 4 15 13 20 17 22 15 24 27 15 0 9 13 15
6 4 4 5 3 4 3 5 7 5 8 5 9 12 12 12 11 12 7 13 3 9 14 14 7 11 13 6 4 5 9 12 14 17 13 12 16 19 14 11 8 6 12 15 15
7 3 5 4 4 2 4 8 7 5 4 8 8 10 11 12 11 14 12 7 13 13 15 13 6 11 16 10 5 8 11 5 5 20 16 10 3 11 18 14 6 11 15 16 15
6 4 2 6 2 5 6 7 6 7 4 4 6 7 13 14 8 8 12 7 14 15 6 8 5 10 9 8 4 8 14 13 14 14 14 12 4 14 10 6 10 14 16 16 15
4 3 2 3 2 5 9 4 5 3 10 6 10 13 11 12 13 10 18 12 13 16 15 10 13 15 13 18 14 11 12 12 13 10 13 16 20 8 11 12 16 15 19 18 16
2 3 4 3 3 9 8 8 8 6 3 10 6 8 12 7 18 22 18 17 17 20 21 5 14 18 18 19 17 18 18 17 17 19 18 18 24 19 17 16 18 19 21 17 15
4 3 4 10 6 8 1 3 8 6 11 12 13 12 15 18 19 26 24 19 8 4 11 4 6 13 20 18 18 22 21 21 21 20 21 22 27 22 23 22 21 20 18 16 14
1 1 2 7 4 5 4 6 13 15 10 8 11 17 19 21 19 24 23 24 16 6 7 4 4 9 13 11 13 16 17 19 22 21 21 21 23 21 23 20 19 19 18 16 15

GFSSW_925_spd_042.txt.gz
Wind_Speed
18 19 19 19 20 20 19 18 16 16 17 18 18 17 18 21 24 19 12 2 4 9 11 15 15 16 18 17 21 19 16 18 25 23 18 19 21 22 11 15 18 20 12 10 7
19 19 19 20 20 20 19 16 16 16 16 17 18 19 20 24 22 18 4 4 8 10 10 13 13 16 15 15 13 17 17 28 24 22 19 18 19 23 13 19 18 21 7 6 19
19 19 19 20 20 20 18 17 16 16 17 19 20 21 21 18 11 9 5 8 7 8 12 15 17 15 19 19 21 23 27 25 27 26 23 26 22 13 16 21 20 17 15 8 8
19 20 20 21 20 19 19 17 17 18 18 21 21 21 22 9 2 8 7 7 9 8 11 13 12 15 18 21 22 27 30 28 29 24 27 28 25 17 16 20 24 19 20 9 14
20 20 21 21 21 19 18 17 18 18 18 20 20 17 11 7 1 4 7 8 11 11 12 9 11 14 19 19 22 29 29 29 28 26 24 27 29 26 18 21 23 25 21 16 16
23 22 23 23 22 20 18 18 18 19 20 21 17 15 9 13 3 3 5 8 7 9 11 13 10 13 17 20 22 22 27 29 28 29 26 28 29 23 26 20 23 24 25 8 8
24 25 26 24 22 19 17 18 17 20 21 18 12 9 11 12 2 5 7 10 10 5 7 11 14 11 14 18 18 19 26 26 28 26 27 26 26 30 24 22 24 23 23 20 20
25 28 25 25 23 20 17 16 19 19 15 11 10 7 7 3 4 4 11 12 9 13 14 11 10 13 13 16 22 22 23 20 25 27 28 23 29 29 26 19 22 24 23 21 21
28 31 30 27 23 18 17 16 18 13 11 9 6 8 11 4 7 7 11 11 13 12 12 10 8 13 14 14 15 16 20 24 26 24 23 26 31 27 23 21 23 21 21 22 20
30 32 32 30 23 16 16 17 17 13 8 8 13 8 11 6 9 10 10 11 11 11 12 12 12 13 13 13 16 17 20 20 26 24 25 25 29 29 25 25 23 21 21 23 22
29 33 34 30 19 11 18 10 4 5 14 13 14 13 11 5 8 8 8 9 11 9 14 11 12 13 17 17 20 19 21 25 26 26 26 22 25 27 23 24 25 20 19 23 26
32 35 34 25 13 8 12 8 9 9 10 16 15 11 10 9 7 9 6 9 13 14 15 13 15 15 15 17 19 20 23 25 24 24 21 24 28 29 21 21 20 21 22 22 20
34 34 30 19 9 9 12 7 9 11 7 6 3 5 7 5 10 12 5 9 13 16 15 15 17 20 19 19 22 20 19 22 23 20 20 24 26 26 27 24 19 20 20 21 20
37 34 25 12 7 6 3 7 11 10 5 7 7 4 5 4 15 3 9 7 12 16 17 15 19 20 20 22 19 21 20 23 22 19 17 18 18 21 22 24 21 23 23 17 16
38 33 17 5 13 8 10 12 11 7 4 4 8 6 4 8 10 11 1 7 13 15 14 18 19 19 21 23 22 25 23 21 22 22 21 22 15 21 21 24 23 20 22 20 16
40 32 11 5 8 6 11 11 7 5 2 5 1 4 9 11 15 5 12 11 18 20 18 20 18 15 17 21 22 22 23 25 22 18 17 24 20 22 19 22 24 22 19 22 23
41 26 12 11 8 10 13 10 5 6 5 3 6 11 13 18 5 6 8 13 13 10 13 17 17 8 12 17 20 14 15 13 15 15 17 22 21 18 23 23 27 23 21 19 19
38 13 5 10 10 9 12 8 5 9 11 15 10 15 17 11 7 7 13 12 7 11 13 12 15 7 4 21 20 10 6 7 12 16 18 20 15 17 20 22 23 23 24 19 14
31 8 5 8 4 7 7 6 3 10 12 11 14 12 11 14 12 13 11 10 7 8 12 14 15 19 20 17 17 19 13 12 12 17 16 18 24 20 22 22 21 24 23 17 15
23 11 6 6 1 6 5 10 13 8 10 12 12 8 13 16 13 13 13 11 10 15 10 14 21 19 23 10 17 24 18 10 1 5 17 17 21 14 16 16 21 22 19 22 14
8 4 4 1 2 5 5 11 12 14 11 7 12 14 15 14 13 13 14 16 11 15 15 18 14 17 20 19 16 11 10 6 7 6 10 14 12 8 21 24 27 27 19 4 8
7 3 5 3 6 4 5 8 3 5 8 12 7 12 9 14 15 19 18 13 15 12 15 10 7 16 22 25 21 19 16 11 9 14 13 12 18 16 21 26 30 33 8 15 6
7 4 5 3 3 6 11 14 11 6 9 11 9 10 12 14 14 10 17 18 17 12 8 8 4 10 14 18 8 7 14 17 15 9 15 12 14 15 21 23 28 26 20 21 11
5 4 2 3 4 8 13 13 12 11 9 4 7 9 13 12 13 11 18 19 6 6 4 5 6 14 15 21 3 6 19 25 18 10 14 14 19 8 8 11 22 24 25 18 13
4 5 5 6 9 13 8 13 13 13 10 9 11 14 13 16 17 18 15 22 20 5 4 6 8 15 20 23 22 21 26 30 23 18 18 16 18 12 8 7 18 20 29 16 12
6 5 7 12 10 13 6 9 12 10 13 14 14 14 17 17 17 25 22 19 18 18 7 3 5 14 18 19 21 24 25 27 26 20 22 18 17 13 9 12 21 28 18 11 11
6 2 4 9 9 11 9 10 11 14 9 11 15 17 19 17 21 22 22 22 20 20 4 3 5 9 15 15 15 14 16 17 24 17 20 18 12 14 9 14 17 10 14 10 10

GFSSW_925_spd_045.txt.gz
Wind_Speed
19 19 20 20 20 19 19 17 16 15 15 17 18 20 21 23 27 17 7 5 6 10 12 17 12 14 16 5 4 3 6 14 19 18 22 19 15 17 12 7 5 5 3 4 27
20 20 21 21 20 20 19 18 17 16 17 18 20 22 22 23 21 12 5 4 8 11 7 9 8 10 5 6 5 6 7 17 17 15 17 17 16 18 15 10 9 7 6 7 20
21 21 21 21 21 21 20 19 18 17 18 19 21 23 22 20 6 2 6 1 5 5 5 8 17 8 6 7 10 7 19 13 16 18 20 21 19 19 17 14 9 7 9 11 9
21 22 23 23 22 21 20 20 19 19 19 19 22 23 22 2 3 7 1 2 2 6 7 11 8 5 4 7 7 17 19 18 19 20 24 26 21 23 16 15 11 8 6 3 16
22 23 25 25 24 22 20 20 19 20 19 20 21 20 10 3 6 5 0 2 8 9 12 8 5 5 7 6 11 19 17 16 19 21 24 25 25 21 22 17 17 14 9 9 14
24 25 26 25 24 23 21 19 19 19 20 22 19 13 3 5 2 5 4 9 13 8 10 11 5 9 5 6 7 8 14 16 15 18 18 20 23 23 23 16 18 14 10 9 10
26 27 28 27 26 24 21 19 19 18 20 17 12 5 5 12 1 3 7 8 12 8 5 7 9 7 9 9 8 11 11 15 14 15 18 11 17 23 17 15 19 16 11 9 8
27 27 28 29 28 25 22 19 18 18 17 13 6 2 6 1 6 8 7 11 9 10 11 14 11 4 5 7 9 8 9 6 2 9 15 8 23 23 10 13 16 14 20 19 10
29 30 32 31 29 25 22 20 17 18 14 9 4 5 6 10 6 4 7 7 10 12 10 12 3 5 6 6 5 6 8 10 15 11 10 10 23 26 15 14 14 15 17 17 14
29 33 33 33 29 22 20 19 15 15 7 5 10 4 7 7 5 4 10 7 8 7 8 7 5 6 4 4 4 8 9 10 13 5 10 14 19 18 20 20 18 16 13 15 19
33 35 35 33 24 17 19 7 1 1 3 7 6 7 15 9 5 4 5 2 9 7 6 6 5 5 11 10 10 12 15 13 15 12 13 11 17 19 13 14 17 20 20 17 19
36 35 37 30 20 11 10 3 8 8 7 12 16 16 18 4 4 10 5 3 5 7 10 6 5 8 13 13 13 10 14 15 13 9 12 13 18 19 16 16 16 13 18 21 13
37 36 35 26 15 9 9 11 11 11 3 12 10 6 3 8 9 8 2 3 6 7 8 6 11 14 16 14 15 12 14 16 19 13 13 12 15 21 20 14 15 17 9 7 11
37 37 32 25 8 8 8 9 13 10 2 6 5 4 3 6 7 15 9 4 2 7 8 6 9 14 12 12 12 15 11 15 17 13 11 5 15 14 19 21 13 14 13 10 10
38 36 27 12 13 8 12 14 11 1 3 5 6 7 3 4 5 5 16 7 7 11 7 11 10 12 11 9 15 16 15 19 15 17 13 12 7 13 7 18 15 12 18 16 12
39 32 24 4 10 12 16 15 11 1 3 5 7 6 8 7 10 4 5 5 9 11 10 10 5 4 4 8 8 12 15 16 11 9 12 15 10 19 11 18 19 14 14 17 19
38 27 14 7 5 19 15 9 1 2 3 5 5 12 11 14 16 6 1 7 5 3 5 7 8 5 4 2 5 7 4 5 4 4 15 13 12 18 11 15 13 12 15 17 17
35 14 5 8 7 12 14 2 2 9 10 11 11 11 12 15 8 11 5 6 5 5 3 3 7 5 2 6 6 9 4 4 5 4 7 19 7 10 11 13 20 21 17 16 13
32 8 5 1 3 8 3 2 1 11 11 11 14 10 9 16 11 8 7 6 5 7 3 6 6 8 13 15 12 4 3 9 5 10 4 5 11 13 10 16 21 22 24 21 23
26 7 5 5 1 5 2 3 3 10 11 9 5 6 12 12 11 9 5 5 11 16 10 6 16 5 12 12 10 7 1 2 4 3 3 5 11 5 14 16 18 20 22 24 24
4 2 2 1 2 1 1 3 13 9 6 6 8 9 10 8 10 11 8 13 13 10 10 7 2 10 10 4 13 13 2 4 4 2 3 4 2 3 8 11 15 18 20 23 20
8 1 5 1 1 2 3 10 14 12 5 5 7 5 8 9 7 12 12 7 15 8 3 3 4 10 20 20 14 12 6 3 1 3 4 4 8 6 4 7 10 17 17 22 20
6 3 5 5 1 3 7 13 14 15 6 3 4 3 2 6 5 5 11 10 9 7 4 2 3 6 9 4 4 2 10 5 5 2 7 5 5 5 2 5 9 11 17 19 19
3 4 3 2 5 6 7 6 12 8 10 13 5 6 5 6 6 7 13 8 9 2 5 6 4 7 8 13 11 14 12 13 4 2 12 11 13 17 5 3 9 13 15 16 20
2 4 4 4 5 10 10 8 10 9 6 8 6 11 8 5 12 11 10 18 14 6 4 2 5 11 17 20 21 19 20 18 16 18 13 22 19 20 9 4 4 13 11 17 28
3 4 6 5 9 8 11 6 9 9 8 9 8 11 11 9 12 18 13 12 10 9 2 5 3 5 17 18 18 20 14 16 18 17 10 11 8 19 9 8 9 17 17 17 24
7 4 3 6 7 7 6 13 12 8 1 6 10 12 13 16 15 16 14 18 18 12 4 1 3 4 5 8 12 8 3 6 8 9 6 4 7 12 11 9 11 18 20 22 17

GFSSW_925_spd_048.txt.gz
Wind_Speed
18 18 18 18 18 18 18 17 16 15 15 16 17 20 22 22 24 15 6 7 5 6 10 11 11 9 6 3 3 1 4 10 12 12 11 9 8 15 6 8 10 9 7 5 19
19 19 19 19 19 19 18 18 17 16 16 17 18 20 22 22 19 8 5 6 8 10 7 3 2 5 2 5 3 5 5 8 6 10 12 14 17 19 17 17 18 12 14 21 18
20 20 20 21 21 20 19 19 17 17 16 16 18 20 20 17 4 4 7 5 4 1 3 3 5 2 3 4 5 4 11 7 7 9 8 14 22 15 16 17 15 9 10 9 11
23 22 22 22 21 21 20 19 18 17 17 16 18 20 17 0 2 4 3 5 4 3 2 2 2 1 2 4 5 7 10 7 10 15 15 19 19 21 18 21 13 17 3 5 6
25 25 25 25 24 22 21 20 19 17 16 16 18 14 5 2 7 8 5 4 6 6 5 3 1 1 2 4 5 6 9 9 11 12 16 17 21 23 24 22 14 22 7 5 3
27 27 26 26 27 25 23 20 18 17 14 16 14 6 1 3 3 5 3 8 10 9 6 7 2 3 2 2 1 5 7 9 7 9 6 8 13 12 27 20 14 16 21 7 6
27 28 27 29 29 28 25 20 18 15 12 13 8 1 2 10 3 8 4 6 7 10 5 6 4 4 3 8 3 7 7 9 6 3 4 7 16 23 14 10 12 11 19 8 7
31 30 32 30 30 28 26 20 15 12 11 6 2 2 6 5 6 5 2 5 7 9 8 9 8 3 3 2 7 6 4 4 3 7 5 8 24 22 12 10 17 11 13 16 7
32 32 33 31 31 28 25 17 14 13 7 3 1 3 8 10 3 6 2 4 10 9 11 11 4 5 1 2 4 3 4 6 7 6 6 6 16 8 8 8 16 18 9 16 15
34 35 35 34 30 27 21 17 6 4 4 3 4 2 6 2 8 3 3 2 2 5 7 1 3 3 2 3 4 6 5 6 4 5 1 7 15 8 6 6 8 10 11 14 17
36 35 35 34 26 23 19 3 5 3 2 6 5 5 9 10 1 2 1 1 3 5 3 4 3 4 11 9 12 7 10 7 5 8 6 8 15 14 6 6 8 9 12 13 15
37 36 36 33 23 14 8 1 2 5 7 9 12 14 22 18 4 5 11 3 2 3 6 6 3 3 5 7 6 8 5 7 6 7 11 12 21 18 8 6 7 10 11 11 13
35 34 34 28 14 5 5 9 9 8 2 7 5 5 6 8 4 7 3 3 4 2 4 3 7 8 8 6 7 5 5 8 8 12 8 6 17 16 15 5 6 8 9 10 10
36 34 30 25 3 12 3 17 8 3 3 5 4 4 4 4 4 10 11 7 3 5 4 6 7 5 7 3 3 3 7 10 12 9 4 3 13 16 12 14 7 9 8 11 11
37 31 26 8 9 6 16 17 14 3 3 7 4 6 3 5 2 4 17 3 7 7 5 10 5 11 3 1 2 6 6 6 9 10 4 9 6 14 5 13 15 13 15 11 12
37 25 17 1 7 9 20 19 4 3 2 2 3 3 2 5 8 3 9 2 5 6 3 8 3 4 5 2 1 3 4 6 4 3 6 9 8 26 12 10 14 12 13 14 16
29 15 7 3 2 13 20 4 4 4 9 5 6 6 7 4 5 5 6 3 3 1 2 3 3 3 3 1 3 1 4 4 5 3 5 2 5 19 9 3 2 9 12 12 12
22 8 6 4 7 15 11 4 6 10 11 9 8 9 2 12 6 8 5 4 7 6 1 3 6 2 2 4 5 5 6 4 4 6 10 13 7 5 7 3 3 7 9 10 8
14 6 4 3 5 9 5 5 1 5 6 7 7 3 5 10 6 8 6 3 5 6 2 3 5 8 6 3 2 2 4 7 3 3 5 5 7 6 5 6 9 10 10 13 13
10 8 4 3 1 6 5 2 3 8 1 4 3 4 5 8 5 7 4 6 4 4 2 3 7 4 2 5 9 6 2 2 2 3 5 5 5 6 8 8 10 13 12 14 14
5 3 2 1 4 5 3 4 5 13 2 1 3 5 4 3 4 4 4 7 9 2 5 1 2 5 4 5 13 3 2 2 2 3 4 5 5 6 8 10 8 12 13 12 16
7 2 1 1 4 1 1 5 7 10 7 3 1 3 2 2 3 3 5 3 6 0 3 1 1 4 10 20 9 4 4 5 3 3 3 3 8 10 11 12 7 11 15 15 15
3 3 3 1 2 4 5 5 3 5 7 6 5 3 2 2 3 3 3 5 7 2 3 1 1 5 7 3 3 2 4 4 4 2 6 4 8 5 11 10 8 9 13 17 15
2 4 4 4 1 2 5 5 6 5 2 4 3 6 6 4 2 5 7 4 11 7 8 5 2 6 7 15 10 13 15 15 9 4 6 14 19 17 20 15 11 11 11 12 14
3 1 1 4 3 5 3 3 6 6 2 3 3 2 3 3 5 5 3 12 11 11 4 6 5 10 19 21 20 19 19 21 16 15 12 18 16 17 9 17 11 13 13 13 15
2 3 4 4 6 5 4 4 5 9 3 4 3 6 1 4 8 16 12 4 7 5 4 3 5 6 15 18 16 17 18 20 19 14 9 5 11 11 11 10 10 13 14 15 15
6 4 1 4 5 3 1 4 7 7 7 5 7 5 5 11 11 12 13 12 11 11 5 5 3 3 5 8 13 6 4 4 3 2 3 6 10 9 16 17 16 19 20 13 18